Terminal Aerodrome Forecast
Issued by NWS Charleston, WV

Current Version | Previous Version | Graphics & Text | Print | Product List | Glossary On
Versions: 1 2 3 4 5 6 7 8 9 10 11 12 13 14 15 16 17 18 19 20 21 22 23
000
FTUS41 KRLX 221900 AAA
TAFEKN
TAF AMD
KEKN 221930Z 2220/2318 28011G17KT 6SM BR OVC015
     FM222120 32015G25KT 5SM -TSRA SCT015 BKN035CB
     FM222140 32011G17KT P6SM SCT015 BKN035
     FM231500 31013G20KT P6SM SCT060=

USA.gov is the U.S. government's official web portal to all federal, state and local government web resources and services.